Regional Weather Roundup
Issued by NWS

Home | Current Version | Previous Version | Graphics & Text | Print | Product List | Glossary On
Versions: 1 2 3 4 5 6 7 8 9 10 11 12 13 14 15 16 17 18 19 20 21 22 23 24 25 26 27 28 29 30 31 32 33 34 35 36 37 38 39 40 41 42 43 44 45 46 47 48 49 50
000
ASUS43 KLMK 220102
RWRKY
KENTUCKY REGIONAL WEATHER ROUNDUP
NATIONAL WEATHER SERVICE LOUISVILLE KY
900 PM EDT FRI JUL 21 2017

NOTE "FAIR" INDICATES FEW OR NO CLOUDS BELOW 12,000 FEET
WITH NO SIGNIFICANT WEATHER AND/OR OBSTRUCTIONS TO VISIBILITY.

KYZ001>023-026-027-061>063-070>075-220200-
WESTERN AND SOUTH CENTRAL KENTUCKY

CITY           SKY/WX    TMP DP  RH WIND       PRES   REMARKS
PADUCAH        CLEAR     88  76  67 S5        29.92R HX  99
HENDERSON      CLEAR     86  79  79 SW6       29.92R HX  99
OWENSBORO      CLEAR     87  76  69 S6        29.92S HX  97
HOPKINSVILLE   CLEAR     88  77  68 S6        29.95S HX 100
BOWLING GREEN  CLEAR     91  73  55 S8        29.95S HX  99
GLASGOW        NOT AVBL
$$

KYZ024-025-028>034-038-045-046-053-220200-
NORTH CENTRAL KENTUCKY

CITY           SKY/WX    TMP DP  RH WIND       PRES   REMARKS
LOUISVILLE/SDF PTCLDY    91  74  57 SW8       29.92S HX 100
LOUISVILLE/LOU CLEAR     90  74  59 SW8       29.93S HX  99
FORT KNOX      CLEAR     85  75  71 S5        29.93F HX  94
$$

KYZ035>037-039>044-047>052-055>060-089>105-220200-
NORTHEAST KENTUCKY

CITY           SKY/WX    TMP DP  RH WIND       PRES   REMARKS
LEXINGTON      CLEAR     87  72  60 CALM      29.97S HX  93
COVINGTON      MOCLDY    78  72  81 SE10      29.98R
FRANKFORT      PTCLDY    86  74  67 CALM      29.94F HX  94
$$

KYZ054-064>069-076>088-106>120-220200-
SOUTHEAST KENTUCKY

CITY           SKY/WX    TMP DP  RH WIND       PRES   REMARKS
JACKSON        CLEAR     84  71  65 CALM      30.01S
LONDON         CLEAR     86  71  60 SW3       30.00S HX  91
SOMERSET       CLEAR     82  70  65 CALM      29.99F
MIDDLESBORO    CLEAR     82  74  76 NW3       30.02S
MONTICELLO     CLEAR     80  75  84 NE7       30.01S
$$





USA.gov is the U.S. government's official web portal to all federal, state and local government web resources and services.